Location: Fort Worth, Tx
(32.7431°N, 97.3695°W)
Time: 00:16:08
(UTC-04:00)

A-11 Canister half - Pass Details

Date: 25 February 2024
Orbit: 1525 x 1683 km, 47.3° (Epoch: 24 April)

Event Time Altitude Azimuth Distance (km) Brightness Sun altitude
Rises 21:06:30 0° 226° (SW) 4,814 12.2 -22.5°
Reaches altitude 10° 21:09:38 10° 225° (SW) 3,809 11.6 -23.1°
Maximum altitude 21:19:18 82° 139° (SE) 1,579 8.9 -25.1°
Enters shadow 21:24:00 35° 57° (ENE) 2,310 9.5 -26.1°
